Simultaneous Nadir Overpasses (SNOs) Predictions

Prediction of SNOs between GOES-16 and AQUA Satellite Orbit:

Table of predicted SNOs for the next 14.0 days since TLE Epoch: 4/5/2019
Index Date Time (GOES-16) GOES-16 Lat,Lon AQUA Lat,Lon Distance(km) Time Diff (sec)
1 04/06/2019 18:23:40 0.00, -75.21 0.73, -71.71 397.39 80
2 04/07/2019 06:44:56 -0.00, -75.20 0.38, -76.87 189.99 80
3 04/09/2019 06:30:05 -0.00, -75.21 -0.29, -73.92 146.85 80
4 04/09/2019 18:51:28 0.00, -75.21 -0.84, -79.10 442.31 80
5 04/11/2019 06:17:53 0.00, -75.21 -0.91, -70.96 483.70 80
6 04/11/2019 18:39:16 0.00, -75.22 -0.22, -76.14 105.40 80
7 04/13/2019 18:29:45 -0.00, -75.23 0.46, -73.19 231.93 80
8 04/14/2019 06:51:01 0.00, -75.23 0.65, -78.35 355.01 80
9 04/16/2019 06:38:49 0.00, -75.24 0.02, -75.39 16.95 80
10 04/18/2019 06:23:57 0.00, -75.27 -0.61, -72.44 321.98 80
11 04/18/2019 18:45:19 -0.00, -75.28 -0.52, -77.62 266.70 80




NCC Satellite Simultaneous Nadir Overpasses (SNOs) Prediction Service
